Location: Newark
(57.9389°N, 16.3988°E)
Time: 02:34:58
(UTC+00:00)

ISS - Visible Passes

Search period start: 06 December 2019 00:00
Search period end: 16 December 2019 00:00
Orbit: 411 x 421 km, 51.6° (Epoch: 06 December)

Date Brightness Start Highest point End Pass type
(mag) Time Alt. Az. Time Alt. Az. Time Alt. Az.
06 Dec -1.7 15:50:47 10° WSW 15:53:36 25° S 15:56:25 10° SE visible
06 Dec -0.9 17:28:06 10° WSW 17:29:34 12° SSW 17:30:12 12° SSW visible
07 Dec -1.7 15:02:22 10° WSW 15:05:16 27° S 15:08:09 10° SE visible
07 Dec -1.0 16:39:11 10° WSW 16:41:18 16° SSW 16:43:25 10° SSE visible
08 Dec -1.1 15:50:33 10° WSW 15:53:01 19° SSW 15:55:28 10° SSE visible
09 Dec -1.3 15:01:59 10° WSW 15:04:41 22° SSW 15:07:22 10° SE visible
10 Dec -0.6 15:50:43 10° WSW 15:52:17 13° SSW 15:53:51 10° S visible
11 Dec -0.7 15:01:49 10° WSW 15:03:59 16° SSW 15:06:08 10° SSE visible
